Regional Weather Roundup
Issued by NWS

Home | Current Version | Previous Version | Text Only | Print | Product List | Glossary On
Versions: 1 2 3 4 5 6 7 8 9 10 11 12 13 14 15 16 17 18 19 20 21 22 23 24 25 26 27 28 29 30 31 32 33 34 35 36 37 38 39 40 41 42 43 44 45 46 47 48 49 50
000
ASUS44 KFWD 302210
RWRTX
NORTH TEXAS HOURLY WEATHER ROUNDUP
NATIONAL WEATHER SERVICE FORT WORTH TX
500 PM CDT SUN AUG 30 2015

NOTE: "FAIR" INDICATES FEW OR NO CLOUDS BELOW 12,000 FEET WITH NO
SIGNIFICANT WEATHER AND/OR OBSTRUCTIONS TO VISIBILITY.

TXZ118-119-302300-
DALLAS/FORT WORTH METROPLEX

CITY           SKY/WX    TMP DP  RH WIND       PRES   REMARKS
DFW AIRPORT    PTSUNNY   95  55  26 CALM      29.92F HX  93
DALLAS LOVE    PTSUNNY   97  58  27 NW3       29.92F HX  96
FTW MEACHAM    MOSUNNY   97  57  26 W8        29.92F HX  96
DAL-EXECUTIVE  PTSUNNY   92  63  38 S10G17    29.93F HX  93
FTW-ALLIANCE   MOSUNNY   94  56  27 VRB5      29.93F HX  92
FTW-NAS-JRB    PTSUNNY   97  58  27 W9        29.92F HX  96
FTW-SPINKS     MOSUNNY   93  63  36 S17       29.95F HX  94
ARLINGTON      MOSUNNY   95  62  33 S10G17    29.93F HX  96
GRAND PRAIRIE  SUNNY     93  64  38 S12G21    29.94F HX  95
ADDISON        PTSUNNY   95  54  24 W7        29.94F HX  93
MESQUITE       MOSUNNY   91  61  35 S14       29.94F HX  91
LANCASTER      PTSUNNY   89  62  39 SW8       29.95F HX  90
$$

TXZ091>094-102>105-117-120-121-131>134-302300-
NORTH CENTRAL TEXAS

CITY           SKY/WX    TMP DP  RH WIND       PRES   REMARKS
SHRMAN/DENISON MOSUNNY   99  60  27 S9        29.92F HX  99
GAINESVILLE    MOSUNNY   94  57  29 S7        29.93F HX  92
BOWIE          MOSUNNY   96  52  22 SW10      29.93F HX  93
BRIDGEPORT     MOSUNNY   95  61  32 S10G16    29.94F HX  95
DECATUR        SUNNY     93  58  30 SW9       29.95S HX  92
DENTON         MOSUNNY   95  57  27 SW14      29.92F HX  94
MCKINNEY       MOSUNNY   94  58  29 SW8       29.93F HX  93
GREENVILLE     MOSUNNY   93  63  36 SE14G20   29.94S HX  94
ROCKWALL       MOSUNNY   94  62  34 S6        29.92F HX  95
TERRELL        PTSUNNY   91  65  41 S13       29.94F HX  93
WAXAHACHIE     MOSUNNY   92  64  38 S13       29.96F HX  94
CLEBURNE         N/A     86  68  54 S8        29.97F
GRANBURY       MOSUNNY   93  59  31 S7        29.95F HX  93
$$

TXZ083>090-098>101-113>116-127>130-139>142-154-155-302300-
WESTERN NORTH TEXAS

CITY           SKY/WX    TMP DP  RH WIND       PRES   REMARKS
WICHITA FALLS  MOSUNNY   96  56  26 CALM      29.90F HX  94
WF-KICKAPOO    MOSUNNY   97  54  23 N5        29.92F HX  95
VERNON         SUNNY     96  47  19 CALM      29.93F HX  92
ABILENE        MOSUNNY   93  56  28 SW7       29.98F HX  91
ABILENE-DYESS  MOSUNNY   93  57  30 VRB2      29.96F HX  91
BRECKENRIDGE   MOSUNNY   96  51  21 W5        29.94F HAZE    HX  93
GRAHAM         MOSUNNY   97  59  28 S5        29.92F HX  97
MINERAL WELLS  MOSUNNY   91  62  37 W5        29.93F HX  91
STEPHENVILLE   PTSUNNY   89  62  41 SW6       30.00F
COMANCHE       MOSUNNY   90  60  37 S6        29.98F HX  90
COLEMAN        MOSUNNY   93  60  33 E16       29.99S HX  92
BRADY          SUNNY     90  59  35 E9        30.00F
$$

TXZ143>147-156>162-174-175-302300-
CENTRAL TEXAS

CITY           SKY/WX    TMP DP  RH WIND       PRES   REMARKS
WACO           PTSUNNY   86  65  49 NW8       29.96F
WACO-TSTC      SUNNY     86  68  54 VRB5      29.95F
WACO-MCGREGOR  PTSUNNY   83  69  62 NW6       29.96F
HILLSBORO      PTSUNNY   87  58  37 S7        29.96F
CORSICANA      PTSUNNY   91  66  43 SE10      29.97F HX  93
MEXIA          PTSUNNY   85  67  53 SE21      29.96F
HEARNE         MOSUNNY   91  66  43 SE8       29.96F HX  93
CAMERON        MOSUNNY   92  66  42 SE9       29.94F HX  95
TEMPLE         CLOUDY    86  66  51 NW13      29.96F
KILLEEN        CLOUDY    87  63  44 SE13      29.97F
KILLEEN-SKYLRK CLOUDY    82  64  54 S6        29.97S
FORT HOOD      CLOUDY    87  66  50 S9        29.97S
GATESVILLE     CLOUDY    84  66  54 CALM      30.00S
HAMILTON       CLOUDY    86  63  46 CALM      30.00F
LAMPASAS       CLOUDY    91  65  43 NE7       29.98S HX  93
$$

TXZ095>097-106>112-122>126-135>138-148>153-164>167-302300-
EAST TEXAS

CITY           SKY/WX    TMP DP  RH WIND       PRES   REMARKS
PARIS          MOSUNNY   93  63  36 S17       29.94S HX  94
SULPHUR SPRNGS CLOUDY    91  65  42 S12       29.96F HX  92
MOUNT PLEASANT SUNNY     93  61  33 SE10      29.96F HX  93
GILMER         MOSUNNY   90  65  43 S7G16     29.97S HX  92
MINEOLA        MOSUNNY   91  63  38 S7        29.97F HX  92
TYLER          MOSUNNY   92  65  40 S10       29.97F HX  94
LONGVIEW       PTSUNNY   92  66  42 S6        29.97F HX  94
MARSHALL       MOSUNNY   91  69  47 SW5       29.99F HX  95
ATHENS         PTSUNNY   86  66  51 CALM      29.96S
JACKSONVILLE   PTSUNNY   89  57  33 SE3       30.01S
HENDERSON      PTSUNNY   90  63  41 S6        29.98F HX  90
CENTER         FAIR      88  65  45 S8        29.98S
NACOGDOCHES    MOSUNNY   88  63  42 SE9       29.98S
LUFKIN         MOSUNNY   88  61  40 SE3       29.98F
$$

SUPPLEMENTAL OBSERVATIONS (CENTRAL)

CITY           SKY/WX    TMP DP  RH WIND       PRES   REMARKS
PAT MAYSE LAKE   N/A     91  64  40 SE14        N/A  HX  93
GREENVILLE       N/A     93  64  38 S8G17       N/A  HX  95
CEDAR HILL       N/A     93  59  31 S9G17       N/A  HX  92
MCGREGOR         N/A     82  64  54 N5          N/A
TEMPLE           N/A     88  64  45 SW7         N/A
$$

SUPPLEMENTAL OBSERVATIONS (WEST)

CITY           SKY/WX    TMP DP  RH WIND       PRES   REMARKS
MILLERS CREEK    N/A     99  52  20 S7G16       N/A  HX  96
POSSUM KINGDOM   N/A     97  57  26 W3G12       N/A  HX  95
GRANBURY         N/A     93  59  31 S10         N/A  HX  92
HAMBY            N/A     93  54  26 SW6G14      N/A  HX  91
IVIE RESERVOIR   N/A     93  57  29 SE7         N/A  HX  92
COLORADO BEND    N/A     82  61  47 W1          N/A
$$

SUPPLEMENTAL OBSERVATIONS (EAST)

CITY           SKY/WX    TMP DP  RH WIND       PRES   REMARKS
CLARKSVILLE      N/A     91  64  40 SW5G16      N/A  HX  93
TEXARKANA        N/A     93  66  40 S5          N/A  HX  96
LINDEN           N/A     93  64  38 SW5         N/A  HX  95
GILMER           N/A     91  64  40 S8          N/A  HX  93
HENDERSON        N/A     90  63  40 S7          N/A  HX  90
LUFKIN           N/A     90  63  40 MISG        N/A  HX  90
N SABINE NF      N/A     90  64  43 MISG        N/A  HX  91
S SABINE NF      N/A     88  64  45 S1          N/A
$$

SUPPLEMENTAL OBSERVATIONS ARE A COLLECTION OF AUTOMATED INSTRUMENTS
THAT ARE MAINTAINED BY A VARIETY OF FEDERAL AND STATE AGENCIES.
CERTAIN ELEMENTS...SUCH AS HUMIDITY VALUES AND SUSTAINED WIND
SPEEDS...MAY BE APPROXIMATED.




USA.gov is the U.S. government's official web portal to all federal, state and local government web resources and services.